Weather reports worldwide

Advertisment
Jaen, Spain (8417): temperature & dewpoint: 06.12.2018 00:00:00 - 12.12.2018 00:00:00 (CET)Jaen, Spain (8417): wind speed: 06.12.2018 00:00:00 - 12.12.2018 00:00:00 (CET)Jaen, Spain (8417): wind direction: 06.12.2018 00:00:00 - 12.12.2018 00:00:00 (CET)Jaen, Spain (8417): reduced air pressure: 06.12.2018 00:00:00 - 12.12.2018 00:00:00 (CET)Jaen, Spain (8417): visibility: 06.12.2018 00:00:00 - 12.12.2018 00:00:00 (CET)Jaen, Spain (8417): precipitation: 06.12.2018 00:00:00 - 12.12.2018 00:00:00 (CET)
Date & Time tt [°C] td [°C] ff [km/h] ff [kn] dd ppp [hPa] vv [km] rr [mm]
12.12.2018 00:00:00 9,5 6,4 5 3 SSW 1024,8 20 0,0
11.12.2018 23:00:00 9,6 6,7 4 2 SSE 1025,3 20 0,0
11.12.2018 22:00:00 10,3 6,6 4 2 SSE 1025,2 20 -
11.12.2018 21:00:00 11,6 6,9 11 6 WSW 1024,4 20 0,0
11.12.2018 20:00:00 11,1 7,4 5 3 SW 1024,4 19 0,0
11.12.2018 19:00:00 12,0 7,7 4 2 WSW 1024,0 19 -
11.12.2018 18:00:00 11,9 8,0 13 7 W 1024,1 20 0,0
11.12.2018 17:00:00 12,7 8,2 13 7 WNW 1023,5 19 0,0
11.12.2018 16:00:00 12,9 8,6 21 11 WNW 1023,5 19 -
11.12.2018 15:00:00 13,8 8,4 18 10 WNW 1023,0 20 0,0
11.12.2018 14:00:00 14,6 8,5 16 9 WNW 1023,5 19 0,0
11.12.2018 13:00:00 13,9 7,0 18 10 WNW 1024,3 20 -
11.12.2018 12:00:00 14,6 6,7 4 2 E 1024,7 17 0,0
11.12.2018 11:00:00 13,0 5,4 9 5 NW 1025,1 20 0,0
11.12.2018 10:00:00 12,3 5,7 2 1 SE 1024,8 20 -
11.12.2018 09:00:00 10,0 5,6 4 2 W 1024,6 20 0,0
11.12.2018 08:00:00 9,5 4,9 4 2 WSW 1024,5 20 0,0
11.12.2018 07:00:00 10,0 5,2 5 3 SSE 1024,1 20 -
11.12.2018 06:00:00 10,1 4,9 2 1 SSE 1024,1 20 0,0
11.12.2018 05:00:00 10,5 4,8 4 2 SW 1024,2 20 0,0
11.12.2018 04:00:00 11,3 5,0 2 1 SW 1024,2 20 -
11.12.2018 03:00:00 11,2 5,1 4 2 SW 1024,5 20 0,0
11.12.2018 02:00:00 11,4 4,8 4 2 SSW 1024,6 20 0,0
11.12.2018 01:00:00 12,0 4,9 2 1 SW 1025,1 20 -
11.12.2018 00:00:00 12,5 4,0 4 2 S 1025,6 20 0,0
10.12.2018 23:00:00 14,0 4,0 9 5 W 1025,2 20 0,0
10.12.2018 22:00:00 13,2 3,8 8 4 WSW 1025,5 20 -
10.12.2018 21:00:00 13,0 4,4 4 2 SW 1025,7 20 0,0
10.12.2018 20:00:00 13,1 4,8 4 2 SSW 1025,7 20 0,0
10.12.2018 19:00:00 13,6 5,2 4 2 SSW 1025,4 20 -
10.12.2018 18:00:00 14,2 5,8 4 2 S 1025,1 20 0,0
10.12.2018 17:00:00 15,9 7,6 2 1 SW 1024,7 20 0,0
10.12.2018 16:00:00 17,8 8,6 2 1 WSW 1024,6 20 -
10.12.2018 15:00:00 18,8 6,6 4 2 WNW 1024,8 20 0,0
10.12.2018 14:00:00 18,0 6,5 4 2 NNW 1025,7 20 0,0
10.12.2018 13:00:00 17,0 7,3 2 1 NE 1026,9 19 -
10.12.2018 12:00:00 16,2 7,4 4 2 ENE 1028,2 20 0,0
10.12.2018 11:00:00 15,4 7,4 2 1 N 1028,9 19 0,0
10.12.2018 10:00:00 14,7 6,8 2 1 SSE 1028,9 20 -
10.12.2018 09:00:00 11,7 2,7 2 1 SSE 1029,2 20 0,0
10.12.2018 08:00:00 11,4 3,4 4 2 SSE 1029,1 20 0,0
10.12.2018 07:00:00 11,3 4,3 2 1 SE 1029,2 20 -
10.12.2018 06:00:00 11,6 4,8 4 2 WSW 1029,0 20 0,0
10.12.2018 05:00:00 12,1 4,8 4 2 S 1029,3 20 0,0
10.12.2018 04:00:00 12,9 4,6 4 2 SSE 1029,5 20 -
10.12.2018 03:00:00 11,9 4,8 2 1 SSE 1029,9 20 0,0
10.12.2018 02:00:00 12,7 5,4 2 1 E 1029,9 20 0,0
10.12.2018 01:00:00 14,0 5,4 4 2 S 1029,7 20 -
10.12.2018 00:00:00 14,9 5,4 4 2 S 1029,8 20 0,0
09.12.2018 23:00:00 16,3 5,3 9 5 S 1029,5 20 0,0
09.12.2018 22:00:00 15,8 5,7 8 4 SSE 1029,8 20 -
09.12.2018 21:00:00 15,5 5,4 5 3 W 1029,7 20 0,0
09.12.2018 20:00:00 16,2 5,2 8 4 S 1029,0 20 0,0
09.12.2018 19:00:00 16,2 4,9 4 2 S 1028,5 20 -
09.12.2018 18:00:00 16,8 5,1 9 5 S 1027,7 20 0,0
09.12.2018 17:00:00 16,2 6,9 2 1 S 1028,0 20 0,0
09.12.2018 16:00:00 18,0 7,4 4 2 S 1027,2 17 -
09.12.2018 15:00:00 19,3 7,7 4 2 NE 1027,0 20 0,0
09.12.2018 14:00:00 19,0 7,1 2 1 N 1027,6 20 0,0
09.12.2018 13:00:00 17,9 8,2 2 1 SE 1028,5 19 -
09.12.2018 12:00:00 15,7 6,9 2 1 ENE 1029,9 20 0,0
09.12.2018 11:00:00 14,5 4,5 2 1 NNE 1030,7 20 0,0
09.12.2018 10:00:00 11,0 3,0 2 1 NW 1031,2 20 -
09.12.2018 09:00:00 8,8 3,2 4 2 NW 1031,2 20 0,0
09.12.2018 08:00:00 9,6 2,9 4 2 SSW 1031,1 20 0,0
09.12.2018 07:00:00 9,1 2,6 2 1 ESE 1031,1 20 -
09.12.2018 06:00:00 8,8 3,8 2 1 WSW 1031,0 20 0,0
09.12.2018 05:00:00 9,1 3,9 2 1 ESE 1030,9 20 0,0
09.12.2018 04:00:00 10,4 4,1 11 6 WSW 1030,7 20 -
09.12.2018 03:00:00 10,4 4,7 4 2 NW 1030,4 20 0,0
09.12.2018 02:00:00 10,5 4,6 2 1 SW 1030,1 20 0,0
09.12.2018 01:00:00 11,8 4,3 9 5 SE 1030,0 19 -
09.12.2018 00:00:00 13,9 4,2 5 3 SE 1029,6 20 0,0
08.12.2018 23:00:00 13,9 6,3 13 7 SSE 1029,6 15 0,0
08.12.2018 22:00:00 11,9 7,4 4 2 S 1030,1 20 -
08.12.2018 21:00:00 12,4 7,7 5 3 S 1029,8 20 0,0
08.12.2018 20:00:00 13,0 7,9 9 5 S 1029,1 20 0,0
08.12.2018 19:00:00 12,6 8,1 5 3 S 1029,0 20 -
08.12.2018 18:00:00 12,7 8,4 5 3 SSW 1028,7 20 0,0
08.12.2018 17:00:00 13,4 8,2 8 4 S 1028,2 20 0,0
08.12.2018 16:00:00 14,7 9,1 2 1 S 1028,1 20 -
08.12.2018 15:00:00 15,6 8,6 5 3 ESE 1027,9 20 0,0
08.12.2018 14:00:00 15,3 8,3 4 2 ESE 1027,8 20 0,0
08.12.2018 13:00:00 14,3 8,5 4 2 NE 1028,4 20 -
08.12.2018 12:00:00 13,2 8,1 2 1 ENE 1029,5 20 0,0
08.12.2018 11:00:00 12,2 7,7 2 1 N 1030,2 19 0,0
08.12.2018 10:00:00 11,8 7,9 4 2 ESE 1029,9 20 -
08.12.2018 09:00:00 8,1 6,9 2 1 SW 1030,3 19 0,0
08.12.2018 08:00:00 7,4 6,3 5 3 S 1030,0 16 0,0
08.12.2018 07:00:00 7,5 6,0 4 2 W 1030,0 18 -
08.12.2018 06:00:00 8,2 5,8 4 2 S 1029,4 19 0,0
08.12.2018 05:00:00 8,7 6,0 2 1 SW 1029,3 19 0,0
08.12.2018 04:00:00 8,9 6,0 2 1 SW 1029,8 20 -
08.12.2018 03:00:00 9,5 5,5 2 1 WSW 1029,7 20 0,0
08.12.2018 02:00:00 9,8 5,4 4 2 SSW 1029,4 20 0,0
08.12.2018 01:00:00 10,8 5,3 4 2 S 1029,6 20 -
08.12.2018 00:00:00 11,8 5,9 4 2 SSW 1029,7 20 0,0
07.12.2018 23:00:00 10,8 5,5 4 2 WSW 1030,2 20 0,0
07.12.2018 22:00:00 11,4 6,1 4 2 SSE 1029,8 20 -
07.12.2018 21:00:00 11,3 6,6 5 3 WSW 1029,1 20 0,0
07.12.2018 20:00:00 12,8 7,0 9 5 S 1029,0 20 0,0
07.12.2018 19:00:00 12,4 6,4 4 2 SSE 1028,8 20 -
07.12.2018 18:00:00 13,0 6,3 13 7 W 1027,8 20 0,0
07.12.2018 17:00:00 13,9 8,9 5 3 SW 1027,0 20 0,0
07.12.2018 16:00:00 16,1 9,0 5 3 S 1027,1 20 -
07.12.2018 15:00:00 17,1 8,5 11 6 NNW 1026,6 20 0,0
07.12.2018 14:00:00 17,1 8,0 5 3 ESE 1026,8 20 0,0
07.12.2018 13:00:00 16,6 7,8 11 6 NNW 1028,0 20 -
07.12.2018 12:00:00 15,4 5,9 4 2 N 1028,1 20 0,0
07.12.2018 11:00:00 14,0 6,4 2 1 WNW 1028,9 20 0,0
07.12.2018 10:00:00 12,8 5,5 2 1 SE 1028,8 20 -
07.12.2018 09:00:00 10,0 4,6 2 1 ENE 1029,0 20 0,0
07.12.2018 08:00:00 9,9 3,6 4 2 WNW 1028,3 20 0,0
07.12.2018 07:00:00 10,9 2,2 4 2 SSE 1027,7 20 -
07.12.2018 06:00:00 9,8 4,0 2 1 W 1028,0 20 0,0
07.12.2018 05:00:00 10,1 4,5 2 1 S 1027,9 20 0,0
07.12.2018 04:00:00 10,4 4,5 4 2 WSW 1028,0 20 -
07.12.2018 03:00:00 10,6 5,1 4 2 WSW 1027,9 20 0,0
07.12.2018 02:00:00 11,2 5,3 2 1 SE 1027,9 20 0,0
07.12.2018 01:00:00 12,4 4,8 5 3 SW 1028,0 20 -
07.12.2018 00:00:00 13,4 5,8 8 4 S 1027,7 20 0,0
06.12.2018 23:00:00 13,5 5,9 9 5 S 1027,9 20 0,0
06.12.2018 22:00:00 12,7 5,8 5 3 SW 1028,2 20 -
06.12.2018 21:00:00 13,2 3,8 4 2 W 1028,0 20 0,0
06.12.2018 20:00:00 12,9 3,8 4 2 SW 1027,6 20 0,0
06.12.2018 19:00:00 13,2 4,9 4 2 SSW 1027,2 20 -
06.12.2018 18:00:00 14,3 6,4 4 2 S 1026,9 20 0,0
06.12.2018 17:00:00 15,9 8,9 8 4 WSW 1026,6 20 0,0
06.12.2018 16:00:00 17,6 9,7 4 2 SSW 1025,9 20 -
06.12.2018 15:00:00 19,7 8,4 4 2 NNE 1025,7 20 0,0
06.12.2018 14:00:00 19,2 7,9 2 1 NNE 1026,2 18 0,0
06.12.2018 13:00:00 17,1 8,2 2 1 N 1027,1 20 -
06.12.2018 12:00:00 15,6 7,6 5 3 NNW 1028,1 20 0,0
06.12.2018 11:00:00 16,1 8,1 2 1 SSE 1028,0 4,3 0,0
06.12.2018 10:00:00 18,4 7,2 9 5 SSE 1027,4 2,7 -
06.12.2018 09:00:00 15,6 6,8 8 4 SSE 1028,0 6 0,0
06.12.2018 08:00:00 13,4 6,7 5 3 S 1028,0 18 0,0
06.12.2018 07:00:00 10,3 5,5 5 3 SSW 1028,9 20 -
06.12.2018 06:00:00 10,6 4,9 4 2 NW 1028,6 20 0,0
06.12.2018 05:00:00 11,7 5,1 2 1 W 1027,8 20 0,0
06.12.2018 04:00:00 14,7 5,2 9 5 S 1026,7 20 -
06.12.2018 03:00:00 13,2 5,6 4 2 WNW 1027,3 20 0,0
06.12.2018 02:00:00 13,7 6,3 5 3 SSE 1027,4 20 0,0
06.12.2018 01:00:00 13,4 5,8 8 4 WSW 1027,8 20 -
06.12.2018 00:00:00 14,4 5,5 9 5 SW 1027,7 20 0,0

tt = temperature
td = dewpoint
ff = wind speed
dd = wind direction
ppp = reduced air pressure
vv = visibility
rr = precipitation

Next stations